"TOA5","MOW","CPU:UNC_MeetingWaters","DataHourly"
"TIMESTAMP","SondeTempC","SpCond","DOSat","DOmg","pH","Turb","BattVolt_Min"
"TS","","","","","","",""
"","Smp","Smp","Smp","Smp","Smp","Smp","Min"
"2004-06-01 00:00:00",20.6100006104,0.0,100.0,8.97999954224,7.48000001907,4.09999990463,12.5600004196
"2004-06-01 01:00:00",20.2999992371,0.0,100.099998474,9.05000019073,7.61999988556,5.0,12.5500001907
"2004-06-01 02:00:00",19.8600006104,0.0,100.300003052,9.14999961853,7.63000011444,4.69999980927,12.529999733
"2004-06-01 03:00:00",19.7999992371,0.0,100.199996948,9.14999961853,7.73000001907,4.80000019073,12.5100002289
"2004-06-01 04:00:00",19.2600002289,0.0,100.599998474,9.28999996185,7.71000003815,4.19999980927,12.4899997711
"2004-06-01 05:00:00",19.0799999237,0.0,100.800003052,9.32999992371,7.73999977112,4.80000019073,12.470000267
"2004-06-01 06:00:00",18.8600006104,0.0,84.5999984741,7.86999988556,7.80000019073,3.79999995232,12.4499998093
"2004-06-01 07:00:00",18.9699993134,0.0,97.3000030518,9.02999973297,7.92999982834,3.70000004768,12.4300003052
"2004-06-01 08:00:00",19.1100006104,0.0,100.699996948,9.31999969482,7.88999986649,3.90000009537,12.4099998474
"2004-06-01 09:00:00",19.7900009155,0.0,100.400001526,9.17000007629,7.67000007629,3.70000004768,12.4200000763
"2004-06-01 10:00:00",20.7700004578,0.0,99.8000030518,8.93999958038,7.40999984741,3.40000009537,13.2100000381
"2004-06-01 11:00:00",24.7600002289,0.0,98.5,8.17000007629,5.51000022888,3.40000009537,13.0900001526
"2004-06-01 12:00:00",23.5200004578,0.0,125.800003052,10.6899995804,7.82000017166,3.40000009537,12.8299999237
"2004-06-01 13:00:00",25.4200000763,0.0,144.199996948,11.8299999237,6.21999979019,3.5,13.0
"2004-06-01 14:00:00",25.0100002289,0.0,127.199996948,10.5100002289,5.40999984741,3.20000004768,13.0
"2004-06-01 15:00:00",25.5900001526,0.0,97.3000030518,7.96000003815,2.77999997139,3.29999995232,13.0100002289
"2004-06-01 16:00:00",25.4799995422,0.0,99.0,8.10999965668,2.52999997139,3.09999990463,12.8000001907
"2004-06-01 17:00:00",24.1299991608,0.0,99.5999984741,8.36999988556,5.57000017166,3.40000009537,12.7399997711
"2004-06-01 18:00:00",23.4899997711,0.0,99.5999984741,8.47000026703,6.21999979019,3.20000004768,12.6700000763
"2004-06-01 19:00:00",22.8099994659,0.0,105.5,9.07999992371,6.76999998093,3.09999990463,12.6300001144
"2004-06-01 20:00:00",21.5900001526,0.0,95.9000015259,8.44999980927,6.78000020981,3.09999990463,12.6000003815
"2004-06-01 21:00:00",20.5200004578,0.0,97.3000030518,8.76000022888,7.15999984741,4.0,12.5799999237
"2004-06-01 22:00:00",19.6599998474,0.0,98.1999969482,8.98999977112,7.26000022888,3.29999995232,12.5699996948
"2004-06-01 23:00:00",19.7199993134,0.0,98.1999969482,8.97999954224,7.38999986649,3.20000004768,12.5500001907
"2004-06-02 00:00:00",19.0799999237,0.0,98.4000015259,9.10999965668,7.42000007629,3.09999990463,12.529999733
"2004-06-02 01:00:00",18.7900009155,0.0,98.8000030518,9.19999980927,7.57000017166,3.5,12.5200004578
"2004-06-02 02:00:00",18.0400009155,0.0,99.3000030518,9.39000034332,7.51999998093,3.79999995232,12.5
"2004-06-02 03:00:00",17.8999996185,0.0,99.4000015259,9.43000030518,7.82999992371,3.70000004768,12.4799995422
"2004-06-02 04:00:00",17.7000007629,0.0,99.4000015259,9.47000026703,7.90000009537,3.90000009537,12.470000267
"2004-06-02 05:00:00",17.0499992371,0.0,100.0,9.65999984741,7.88000011444,4.0,12.4499998093
"2004-06-02 06:00:00",16.8700008392,0.0,99.9000015259,9.68000030518,7.94999980927,3.90000009537,12.4300003052
"2004-06-02 07:00:00",16.8899993896,0.0,100.0,9.68999958038,7.98999977112,3.79999995232,12.3999996185
"2004-06-02 08:00:00",17.1499996185,0.0,100.199996948,9.64999961853,7.82999992371,3.90000009537,12.3900003433
"2004-06-02 09:00:00",18.3799991608,0.0,99.5,9.35000038147,7.84999990463,3.70000004768,12.3999996185
"2004-06-02 10:00:00",19.5200004578,0.0,97.0999984741,8.90999984741,7.59000015259,3.59999990463,12.3100004196
"2004-06-02 11:00:00",24.6900005341,0.0,95.5,7.94000005722,6.46000003815,3.29999995232,13.1199998856
"2004-06-02 12:00:00",25.0699996948,0.0,154.699996948,12.7700004578,6.28999996185,3.29999995232,13.0399999619
"2004-06-02 13:00:00",26.0,0.0,97.3000030518,7.90000009537,6.26999998093,4.5,12.9899997711
"2004-06-02 14:00:00",26.7099990845,0.0,98.3000030518,7.86999988556,4.34999990463,3.0,12.970000267
"2004-06-02 15:00:00",25.5799999237,0.0,99.4000015259,8.13000011444,5.46000003815,3.20000004768,12.8699998856
"2004-06-02 16:00:00",25.0,0.0,99.6999969482,8.23999977112,5.84000015259,3.29999995232,12.7600002289
"2004-06-02 17:00:00",25.1000003815,0.0,99.9000015259,8.23999977112,5.32999992371,5.80000019073,12.720000267
"2004-06-02 18:00:00",24.0900001526,0.0,100.099998474,8.40999984741,6.07000017166,2.90000009537,12.6599998474
"2004-06-02 19:00:00",23.3799991608,0.0,100.099998474,8.52999973297,6.57000017166,2.90000009537,12.6400003433
"2004-06-02 20:00:00",21.9699993134,0.0,100.400001526,8.77999973297,6.94000005722,3.0,12.6099996567
"2004-06-02 21:00:00",21.3400001526,0.0,100.300003052,8.89000034332,7.28999996185,3.09999990463,12.5900001526
"2004-06-02 22:00:00",20.7000007629,0.0,100.800003052,9.03999996185,7.23000001907,3.20000004768,12.5699996948
"2004-06-02 23:00:00",20.2600002289,0.0,101.099998474,9.14999961853,7.38000011444,3.20000004768,12.5699996948
"2004-06-03 00:00:00",20.0300006866,0.0,101.599998474,9.23999977112,7.19000005722,3.59999990463,12.5500001907
"2004-06-03 01:00:00",20.9200000763,0.0,101.300003052,9.03999996185,6.96000003815,3.40000009537,12.529999733
"2004-06-03 02:00:00",19.9799995422,0.0,101.599998474,9.23999977112,7.19999980927,3.29999995232,12.5200004578
"2004-06-03 03:00:00",19.4699993134,0.0,101.599998474,9.34000015259,7.32000017166,3.20000004768,12.4899997711
"2004-06-03 04:00:00",18.8600006104,0.0,101.5,9.43999958038,7.44000005722,3.0,12.470000267
"2004-06-03 05:00:00",18.2299995422,0.0,101.800003052,9.60000038147,7.55000019073,3.40000009537,12.4499998093
"2004-06-03 06:00:00",18.1399993896,0.0,102.099998474,9.64000034332,7.48999977112,3.29999995232,12.4200000763
"2004-06-03 07:00:00",18.25,0.0,101.900001526,9.60000038147,7.65000009537,3.09999990463,12.3999996185
"2004-06-03 08:00:00",18.5900001526,0.0,102.199996948,9.56000041962,7.40000009537,3.0,12.4099998474
"2004-06-03 09:00:00",19.3899993896,0.0,101.5,9.35000038147,7.40999984741,2.90000009537,12.6400003433
"2004-06-03 10:00:00",20.5100002289,0.0,101.300003052,9.11999988556,7.30999994278,3.0,13.2299995422
"2004-06-03 11:00:00",25.0200004578,0.0,99.8000030518,8.25,6.36999988556,3.09999990463,13.1099996567
"2004-06-03 12:00:00",25.7000007629,0.0,99.5,8.11999988556,6.57999992371,3.29999995232,13.0399999619
"2004-06-03 13:00:00",26.7900009155,0.0,99.8000030518,7.98000001907,5.84999990463,2.70000004768,12.9899997711
"2004-06-03 14:00:00",22.1200008392,0.244000002742,101.400001526,8.84000015259,8.93999958038,5.30000019073,12.9799995422
"2004-06-03 15:00:00",22.0400009155,0.207000002265,99.5,8.68999958038,9.03999996185,5.59999990463,12.8199996948
"2004-06-03 16:00:00",22.2199993134,0.111000001431,98.0999984741,8.53999996185,9.06999969482,5.40000009537,12.7700004578
"2004-06-03 17:00:00",22.3700008392,0.00400000018999,95.5,8.30000019073,9.10000038147,5.90000009537,12.7100000381
"2004-06-03 18:00:00",22.5,0.0109999999404,95.6999969482,8.28999996185,9.06000041962,5.59999990463,12.6800003052
"2004-06-03 19:00:00",22.4799995422,0.00400000018999,93.3000030518,8.09000015259,9.14999961853,4.69999980927,12.6400003433
"2004-06-03 20:00:00",22.0200004578,0.00300000002608,91.0999984741,7.96999979019,9.14000034332,4.0,12.6199998856
"2004-06-03 21:00:00",20.9599990845,0.00300000002608,100.300003052,8.94999980927,9.18000030518,4.80000019073,12.6000003815
"2004-06-03 22:00:00",20.3500003815,0.00200000009499,100.900001526,9.10999965668,9.14999961853,3.5,12.5799999237
"2004-06-03 23:00:00",20.1700000763,0.00200000009499,101.099998474,9.15999984741,9.09000015259,3.29999995232,12.5699996948
"2004-06-04 00:00:00",20.5200004578,0.00200000009499,100.699996948,9.06999969482,9.19999980927,3.09999990463,12.5500001907
"2004-06-04 01:00:00",20.2299995422,0.00200000009499,101.099998474,9.14999961853,9.19999980927,3.40000009537,12.5399999619
"2004-06-04 02:00:00",20.25,0.0010000000475,101.099998474,9.14999961853,9.21000003815,3.70000004768,12.529999733
"2004-06-04 03:00:00",20.2399997711,0.0010000000475,101.0,9.14000034332,9.19999980927,3.29999995232,12.5100002289
"2004-06-04 04:00:00",20.1599998474,0.0010000000475,101.099998474,9.15999984741,9.03999996185,3.40000009537,12.4899997711
"2004-06-04 05:00:00",20.0799999237,0.0010000000475,101.099998474,9.18000030518,8.73999977112,3.29999995232,12.470000267
"2004-06-04 06:00:00",20.1000003815,0.0010000000475,101.300003052,9.18999958038,8.27999973297,3.29999995232,12.4600000381
"2004-06-04 07:00:00",20.0400009155,0.0010000000475,101.199996948,9.19999980927,8.25,3.29999995232,12.4399995804
"2004-06-04 08:00:00",20.2000007629,0.0010000000475,101.199996948,9.17000007629,8.22000026703,3.40000009537,12.4300003052
"2004-06-04 09:00:00",20.2399997711,0.0010000000475,101.199996948,9.15999984741,8.18000030518,3.40000009537,12.4200000763
"2004-06-04 10:00:00",20.3400001526,0.0010000000475,101.099998474,9.13000011444,8.27999973297,6.80000019073,12.4300003052
"2004-06-04 11:00:00",20.2900009155,0.236000001431,93.8000030518,8.47999954224,8.94999980927,10.8000001907,12.4099998474
"2004-06-04 12:00:00",21.25,0.0520000010729,100.099998474,8.88000011444,9.28999996185,823.0,12.4899997711
"2004-06-04 13:00:00",21.0699996948,0.082999996841,95.3000030518,8.48999977112,9.19999980927,1415.0,12.4300003052
"2004-06-04 14:00:00",21.0599994659,0.150999993086,93.5,8.31999969482,8.78999996185,1415.0,12.470000267
"2004-06-04 15:00:00",21.1200008392,0.209999993443,91.4000015259,8.13000011444,8.64999961853,552.299987793,12.720000267
"2004-06-04 16:00:00",21.0300006866,0.224000006914,89.8000030518,7.98999977112,8.60000038147,448.100006104,12.5100002289
"2004-06-04 17:00:00",20.9300003052,0.130999997258,88.3000030518,7.88000011444,8.57999992371,466.0,12.4300003052
"2004-06-04 18:00:00",20.8099994659,0.12800000608,87.6999969482,7.84000015259,8.52000045776,607.599975586,12.3999996185
"2004-06-04 19:00:00",20.6499996185,0.131999999285,87.5,7.86000013351,8.48999977112,643.299987793,12.3900003433
"2004-06-04 20:00:00",20.4899997711,0.00400000018999,86.3000030518,7.76999998093,8.46000003815,684.0,12.3900003433
"2004-06-04 21:00:00",20.3099994659,0.00300000002608,84.5,7.63000011444,8.39999961853,812.0,12.3900003433
"2004-06-04 22:00:00",20.2000007629,0.00300000002608,88.0,7.96999979019,8.38000011444,804.0,12.3800001144
"2004-06-04 23:00:00",20.0699996948,0.00300000002608,88.4000015259,8.02999973297,8.42000007629,667.200012207,12.3699998856
"2004-06-05 00:00:00",19.9099998474,0.00300000002608,89.0,8.10999965668,8.46000003815,521.099975586,12.3699998856
"2004-06-05 01:00:00",19.4599990845,0.00300000002608,90.0,8.27000045776,8.5,385.5,12.3699998856
"2004-06-05 02:00:00",18.9799995422,0.00300000002608,90.6999969482,8.42000007629,8.53999996185,279.5,12.3699998856
"2004-06-05 03:00:00",18.0499992371,0.00300000002608,90.8000030518,8.57999992371,8.80000019073,219.199996948,12.3699998856
"2004-06-05 04:00:00",18.2099990845,0.00300000002608,90.4000015259,8.52000045776,9.03999996185,145.600006104,12.3500003815
"2004-06-05 05:00:00",17.7099990845,0.00300000002608,90.6999969482,8.63000011444,9.10999965668,114.800003052,12.3500003815
"2004-06-05 06:00:00",17.3500003815,0.00300000002608,90.3000030518,8.67000007629,9.10999965668,90.1999969482,12.3400001526
"2004-06-05 07:00:00",17.7700004578,0.00300000002608,91.5999984741,8.72000026703,9.10000038147,69.5,12.3299999237
"2004-06-05 08:00:00",17.3600006104,0.00200000009499,93.5999984741,8.97999954224,9.02000045776,57.9000015259,12.3400001526
"2004-06-05 09:00:00",17.7299995422,0.0010000000475,95.9000015259,9.13000011444,8.82999992371,51.0999984741,12.4099998474
"2004-06-05 10:00:00",18.4400005341,0.0010000000475,99.5999984741,9.35000038147,8.35000038147,47.7000007629,12.7700004578
"2004-06-05 11:00:00",19.5499992371,0.0,104.099998474,9.55000019073,7.67999982834,42.0999984741,12.8599996567
"2004-06-05 12:00:00",20.3099994659,0.0,109.199996948,9.86999988556,7.25,36.9000015259,13.1599998474
"2004-06-05 13:00:00",21.6200008392,0.0,119.599998474,10.529999733,7.19000005722,35.5999984741,13.1199998856
"2004-06-05 14:00:00",22.6000003815,0.0,128.100006104,11.0699996948,6.51000022888,34.9000015259,13.1000003815
"2004-06-05 15:00:00",22.7999992371,0.0,98.8000030518,8.51000022888,6.40999984741,36.4000015259,12.970000267
"2004-06-05 16:00:00",22.8099994659,0.0,99.3000030518,8.55000019073,6.42999982834,38.2999992371,12.8800001144
"2004-06-05 17:00:00",22.4099998474,0.0,99.5999984741,8.64000034332,6.53000020981,39.9000015259,12.7600002289
"2004-06-05 18:00:00",21.8099994659,0.0,100.0,8.77999973297,6.69999980927,51.0999984741,12.6700000763
"2004-06-05 19:00:00",21.6700000763,0.0,100.199996948,8.81999969482,6.84000015259,48.5,12.6300001144
"2004-06-05 20:00:00",21.1299991608,0.0,100.5,8.93000030518,6.88000011444,43.7999992371,12.6099996567
"2004-06-05 21:00:00",20.1599998474,0.0,101.099998474,9.15999984741,6.84999990463,38.5999984741,12.5900001526
"2004-06-05 22:00:00",19.9300003052,0.0,101.199996948,9.22000026703,6.98999977112,35.2999992371,12.5699996948
"2004-06-05 23:00:00",19.3799991608,0.0,101.5,9.35000038147,7.05999994278,33.7000007629,12.5600004196
"2004-06-06 00:00:00",19.0400009155,0.0,101.699996948,9.43000030518,7.13000011444,34.4000015259,12.5500001907
"2004-06-06 01:00:00",18.7099990845,0.0,92.4000015259,8.63000011444,7.28000020981,29.3999996185,12.5399999619
"2004-06-06 02:00:00",18.2099990845,0.0,91.5999984741,8.64000034332,7.38000011444,29.2999992371,12.5200004578
"2004-06-06 03:00:00",17.9699993134,0.0,102.300003052,9.68999958038,7.34000015259,28.2000007629,12.5100002289
"2004-06-06 04:00:00",17.9699993134,0.0,102.300003052,9.68999958038,7.40000009537,28.3999996185,12.5
"2004-06-06 05:00:00",17.9300003052,0.0,102.199996948,9.68999958038,7.44999980927,28.2000007629,12.4899997711
"2004-06-06 06:00:00",17.2000007629,0.0,102.900001526,9.89999961853,7.46000003815,28.2999992371,12.4799995422
"2004-06-06 07:00:00",17.3199996948,0.0,102.800003052,9.86999988556,7.44000005722,29.7999992371,12.470000267
"2004-06-06 08:00:00",17.6800003052,0.0,102.5,9.77000045776,7.44999980927,27.8999996185,12.4799995422
"2004-06-06 09:00:00",18.1000003815,0.0,102.300003052,9.65999984741,7.30999994278,27.0,12.7600002289
"2004-06-06 10:00:00",19.0,0.0,101.900001526,9.44999980927,7.19999980927,25.5,12.8800001144
"2004-06-06 11:00:00",19.1900005341,0.0,101.900001526,9.40999984741,6.96999979019,24.2000007629,12.9799995422
"2004-06-06 12:00:00",20.6599998474,0.0,101.199996948,9.07999992371,6.73999977112,22.7999992371,12.8900003433
"2004-06-06 13:00:00",20.2800006866,0.0,115.900001526,10.4799995422,6.80000019073,22.0,12.9499998093
"2004-06-06 14:00:00",20.4400005341,0.0,100.199996948,9.02999973297,6.78999996185,20.0,12.7600002289
"2004-06-06 15:00:00",20.6499996185,0.0,101.099998474,9.06999969482,6.84999990463,20.2000007629,12.7100000381
"2004-06-06 16:00:00",20.6700000763,0.0,101.0,9.06000041962,6.80999994278,20.3999996185,12.779999733
"2004-06-06 17:00:00",21.0599994659,0.0,100.800003052,8.97999954224,6.76000022888,22.7000007629,12.779999733
"2004-06-06 18:00:00",21.0499992371,0.0,100.900001526,8.98999977112,6.78999996185,35.0999984741,12.6899995804
"2004-06-06 19:00:00",21.0400009155,0.0,100.900001526,8.98999977112,6.84000015259,55.2000007629,12.6300001144
"2004-06-06 20:00:00",20.7399997711,0.0,101.099998474,9.06000041962,6.84000015259,87.9000015259,12.6000003815
"2004-06-06 21:00:00",20.0400009155,0.0,101.5,9.22000026703,6.90000009537,107.199996948,12.5900001526
"2004-06-06 22:00:00",19.6299991608,0.0,101.699996948,9.31999969482,6.98999977112,102.099998474,12.5799999237
"2004-06-06 23:00:00",19.5400009155,0.0,101.800003052,9.35000038147,7.11999988556,89.5,12.5600004196
"2004-06-07 00:00:00",19.5200004578,0.0,95.0,8.72000026703,7.23999977112,71.4000015259,12.5600004196
"2004-06-07 01:00:00",19.3700008392,0.0,90.9000015259,8.36999988556,7.28999996185,56.4000015259,12.5500001907
"2004-06-07 02:00:00",19.0200004578,0.0,102.099998474,9.47000026703,7.26000022888,44.7000007629,12.529999733
"2004-06-07 03:00:00",18.9799995422,0.0,102.199996948,9.48999977112,7.30999994278,39.4000015259,12.5100002289
"2004-06-07 04:00:00",18.8500003815,0.0,102.199996948,9.51000022888,7.32999992371,38.4000015259,12.5
"2004-06-07 05:00:00",18.5499992371,0.0,102.5,9.59000015259,7.38999986649,39.2000007629,12.4899997711
"2004-06-07 06:00:00",18.5799999237,0.0,102.5,9.59000015259,7.46000003815,36.5,12.4799995422
"2004-06-07 07:00:00",18.7099990845,0.0,86.9000015259,8.10999965668,7.55000019073,32.7000007629,12.470000267
"2004-06-07 08:00:00",19.0300006866,0.0,102.199996948,9.47999954224,7.53000020981,30.7000007629,12.470000267
"2004-06-07 09:00:00",19.7900009155,0.0,102.099998474,9.31999969482,7.55000019073,27.7999992371,12.6899995804
"2004-06-07 10:00:00",20.5799999237,0.0,101.699996948,9.14000034332,7.46999979019,31.8999996185,12.9300003052
"2004-06-07 11:00:00",21.8600006104,0.0,130.600006104,11.4499998093,8.31000041962,31.2999992371,13.1400003433
"2004-06-07 12:00:00",20.3999996185,0.0,108.900001526,9.81999969482,8.72000026703,26.2999992371,12.8900003433
"2004-06-07 13:00:00",21.5799999237,0.0010000000475,120.699996948,10.6400003433,9.0,22.7999992371,12.9200000763
"2004-06-07 14:00:00",22.8700008392,0.0010000000475,126.099998474,10.8500003815,9.05000019073,21.7999992371,12.8800001144
"2004-06-07 15:00:00",22.6299991608,0.0010000000475,101.099998474,8.72999954224,8.93999958038,20.7999992371,13.0500001907
"2004-06-07 16:00:00",23.1100006104,0.0,100.599998474,8.60999965668,7.63999986649,20.5,13.0100002289
"2004-06-07 17:00:00",23.1100006104,0.0,100.599998474,8.60999965668,7.55999994278,19.5,12.6999998093
"2004-06-07 18:00:00",22.8199996948,0.0,112.900001526,9.72000026703,7.55000019073,18.6000003815,12.6700000763
"2004-06-07 19:00:00",22.2700004578,0.0,102.599998474,8.93000030518,7.51000022888,19.7999992371,12.6300001144
"2004-06-07 20:00:00",21.7000007629,0.0,97.3000030518,8.56000041962,8.69999980927,20.1000003815,12.6099996567
"2004-06-07 21:00:00",21.4500007629,0.0,101.400001526,8.96000003815,8.47000026703,19.8999996185,12.6000003815
"2004-06-07 22:00:00",20.9899997711,0.0,101.800003052,9.07999992371,8.23999977112,19.5,12.5799999237
"2004-06-07 23:00:00",20.6499996185,0.0,102.0,9.15999984741,8.15999984741,20.2000007629,12.5699996948
"2004-06-08 00:00:00",20.5699996948,0.0,102.0,9.18000030518,8.14000034332,20.6000003815,12.5500001907
"2004-06-08 01:00:00",20.3299999237,0.0,102.199996948,9.22999954224,8.14000034332,21.0,12.5399999619
"2004-06-08 02:00:00",20.0699996948,0.0,102.300003052,9.28999996185,8.14000034332,18.8999996185,12.5200004578
"2004-06-08 03:00:00",19.8400001526,0.0,102.400001526,9.34000015259,8.14000034332,17.7000007629,12.5100002289
"2004-06-08 04:00:00",20.0,0.0,102.300003052,9.31000041962,8.21000003815,18.2999992371,12.4899997711
"2004-06-08 05:00:00",20.25,0.0,102.199996948,9.25,8.25,18.2999992371,12.4799995422
"2004-06-08 06:00:00",20.3299999237,0.0,92.9000015259,8.39000034332,8.27999973297,17.5,12.470000267
"2004-06-08 07:00:00",20.3600006104,0.0,93.5,8.44999980927,8.26000022888,17.6000003815,12.470000267
"2004-06-08 08:00:00",20.4599990845,0.0,94.0999984741,8.47999954224,8.09000015259,16.7999992371,12.470000267
"2004-06-08 09:00:00",20.6800003052,0.0,98.0999984741,8.80000019073,8.0,16.5,12.5500001907
"2004-06-08 10:00:00",21.2700004578,0.0,101.900001526,9.03999996185,7.84999990463,16.3999996185,12.7600002289
"2004-06-08 11:00:00",23.1499996185,0.0,101.0,8.64000034332,7.86999988556,16.1000003815,13.0900001526
"2004-06-08 12:00:00",24.4599990845,0.0,100.400001526,8.38000011444,7.44999980927,15.8999996185,13.0399999619
"2004-06-08 13:00:00",24.6100006104,0.0,149.100006104,12.4099998474,7.36000013351,15.3999996185,12.8100004196
"2004-06-08 14:00:00",24.5599994659,0.0,142.300003052,11.8599996567,7.28999996185,15.3000001907,13.0200004578
"2004-06-08 15:00:00",24.2199993134,0.0,136.600006104,11.4499998093,7.25,14.3999996185,13.0200004578
"2004-06-08 16:00:00",23.6499996185,0.0,116.300003052,9.85000038147,7.36999988556,14.8999996185,12.7299995422
"2004-06-08 17:00:00",23.5200004578,0.0,118.0,10.0200004578,7.38999986649,13.6999998093,12.6899995804
"2004-06-08 18:00:00",23.4500007629,0.0,110.300003052,9.38000011444,7.42000007629,13.5,12.6700000763
"2004-06-08 19:00:00",22.5900001526,0.0,100.900001526,8.72999954224,7.42000007629,14.1999998093,12.6099996567
"2004-06-08 20:00:00",22.0499992371,0.0,101.599998474,8.86999988556,7.48000001907,13.6999998093,12.6000003815
"2004-06-08 21:00:00",21.4699993134,0.0,101.800003052,9.0,7.48999977112,14.1999998093,12.5799999237
"2004-06-08 22:00:00",21.3099994659,0.0,102.0,9.03999996185,7.55999994278,14.1000003815,12.5699996948
"2004-06-08 23:00:00",21.1000003815,0.0,102.099998474,9.09000015259,7.61000013351,13.8999996185,12.5600004196
"2004-06-09 00:00:00",20.9200000763,0.0,102.199996948,9.13000011444,7.65000009537,13.6999998093,12.5500001907
"2004-06-09 01:00:00",20.7800006866,0.0,102.199996948,9.14999961853,7.67999982834,13.8000001907,12.5399999619
"2004-06-09 02:00:00",20.6900005341,0.0,91.0,8.15999984741,7.76000022888,13.3999996185,12.5200004578
"2004-06-09 03:00:00",20.4799995422,0.0,90.1999969482,8.11999988556,7.80999994278,13.3999996185,12.5
"2004-06-09 04:00:00",20.2000007629,0.0,101.0,9.14999961853,7.80999994278,13.6000003815,12.4899997711
"2004-06-09 05:00:00",20.0900001526,0.0,102.400001526,9.28999996185,7.82999992371,13.3000001907,12.470000267
"2004-06-09 06:00:00",19.6299991608,0.0,102.699996948,9.40999984741,7.80000019073,13.5,12.4600000381
"2004-06-09 07:00:00",19.6100006104,0.0,102.800003052,9.42000007629,7.80000019073,13.3000001907,12.4499998093
"2004-06-09 08:00:00",20.2600002289,0.0,102.5,9.27000045776,7.88999986649,13.8000001907,12.4499998093
"2004-06-09 09:00:00",20.9599990845,0.0,102.099998474,9.10999965668,7.88999986649,13.1999998093,12.5699996948
"2004-06-09 10:00:00",21.4799995422,0.0,114.400001526,10.1000003815,7.76000022888,13.8000001907,12.8400001526
"2004-06-09 11:00:00",22.7299995422,0.0,131.199996948,11.3199996948,7.46000003815,13.8999996185,13.1000003815
"2004-06-09 12:00:00",23.2299995422,0.0,136.199996948,11.6300001144,7.26000022888,14.1999998093,13.0500001907
"2004-06-09 13:00:00",24.3400001526,0.0,147.300003052,12.3299999237,7.21999979019,13.3000001907,13.029999733
"2004-06-09 14:00:00",24.3099994659,0.0,118.900001526,9.96000003815,7.32000017166,12.1999998093,12.8299999237
"2004-06-09 15:00:00",24.3799991608,0.0,100.599998474,8.40999984741,7.23000001907,12.8999996185,13.0200004578
"2004-06-09 16:00:00",24.2600002289,0.0,100.699996948,8.43999958038,7.17000007629,13.0,12.7299995422
"2004-06-09 17:00:00",23.4699993134,0.0,100.800003052,8.56999969482,7.30000019073,12.5,12.6899995804
"2004-06-09 18:00:00",23.0300006866,0.0,122.599998474,10.5100002289,7.40000009537,11.6999998093,12.6300001144
"2004-06-09 19:00:00",22.6100006104,0.0,107.800003052,9.31999969482,7.44000005722,11.1000003815,12.6199998856
"2004-06-09 20:00:00",22.3299999237,0.0,100.199996948,8.71000003815,7.46999979019,11.8999996185,12.6000003815
"2004-06-09 21:00:00",21.7800006866,0.0,101.0,8.86999988556,7.44000005722,15.3000001907,12.5900001526
"2004-06-09 22:00:00",21.1100006104,0.0,101.900001526,9.06999969482,7.48000001907,17.5,12.5699996948
"2004-06-09 23:00:00",21.2000007629,0.0,102.0,9.06000041962,7.53999996185,17.2999992371,12.5600004196
"2004-06-10 00:00:00",21.0599994659,0.0,102.0,9.09000015259,7.55000019073,16.2000007629,12.5500001907